Location: ????????
(60.5616°N, 46.8254°E)
Time: 03:33:10
(UTC+00:00)

FREGAT/IRIS - Pass Details

Date: 18 February 2020
Orbit: 334 x 335 km, 96.9° (Epoch: 09 April)

Event Time Altitude Azimuth Distance (km) Brightness Sun altitude
Exits shadow 16:12:13 39° 191° (S) 525 3.2 -18.2°
Maximum altitude 16:13:01 64° 257° (WSW) 381 2.7 -18.3°
Drops below altitude 10° 16:15:44 10° 340° (NNW) 1,294 5.6 -18.6°
Sets 16:17:40 0° 344° (NNW) 2,140 6.7 -18.8°
